Location: Noordwijk
(52.2400°N, 4.4500°E)
Time: 17:13:44
(UTC+00:00)

SL-14 DEB - Visible Passes

Search period start: 20 April 2024 00:00
Search period end: 30 April 2024 00:00
Orbit: 711 x 737 km, 82.8° (Epoch: 15 April)

Date Brightness Start Highest point End Pass type
(mag) Time Alt. Az. Time Alt. Az. Time Alt. Az.
20 Apr ? 19:32:29 10° NNE 19:36:02 19° ENE 19:39:35 10° ESE visible
20 Apr ? 21:11:40 10° NNW 21:16:42 77° W 21:19:14 30° S visible
20 Apr ? 22:53:51 10° NW 22:55:50 12° WNW 22:57:49 10° W visible
21 Apr ? 20:21:57 10° N 20:26:50 49° ENE 20:30:06 20° SE visible
21 Apr ? 22:02:27 10° NNW 22:06:36 27° W 22:09:27 16° SW visible
22 Apr ? 19:32:34 10° N 19:36:39 24° ENE 19:40:42 10° ESE visible
22 Apr ? 21:12:08 10° NNW 21:17:04 58° W 21:20:18 21° SSW visible
23 Apr ? 20:22:12 10° N 20:27:13 65° ENE 20:31:07 17° SSE visible
23 Apr ? 22:03:07 10° NW 22:06:45 20° W 22:10:23 10° SW visible
24 Apr ? 19:32:37 10° N 19:37:04 31° ENE 19:41:29 10° SE visible
24 Apr ? 21:12:29 10° NNW 21:17:14 44° W 21:21:18 14° SSW visible
25 Apr ? 20:22:22 10° N 20:27:25 85° E 20:32:07 12° S visible
25 Apr ? 22:03:47 10° NW 22:06:44 16° W 22:09:39 10° WSW visible
26 Apr ? 19:32:34 10° N 19:37:18 39° ENE 19:42:00 10° SE visible
26 Apr ? 21:12:45 10° NNW 21:17:14 33° W 21:21:42 10° SSW visible
27 Apr ? 20:22:24 10° NNW 20:27:26 74° W 20:32:26 10° S visible
27 Apr ? 22:04:43 10° NW 22:06:31 12° WNW 22:08:19 10° W visible
28 Apr ? 21:12:56 10° NNW 21:17:02 26° W 21:21:08 10° SW visible
29 Apr ? 20:22:20 10° NNW 20:27:16 56° W 20:32:09 10° S visible
